Acapulco, Mexico

4:27 AM CDT on April 25, 2017 (GMT -0500)
Gen Juan N Alvarez International

Weather History for MMAA - March, 2013

Change the Weather History Date:

Thursday, March 21, 2013

  Actual Average Record
Temperature  
Mean Temperature 81 °F -  
Max Temperature 91 °F 89 °F 96 °F (2004)
Min Temperature 71 °F 71 °F 57 °F (2005)
Cooling Degree Days 16    
Growing Degree Days 31 (Base 50)    
Moisture  
Dew Point 72 °F    
Average Humidity 75    
Maximum Humidity 91    
Minimum Humidity 43    
Precipitation  
Precipitation 0.00 in 0.01 in - ()
Sea Level Pressure  
Sea Level Pressure 29.86 in    
Wind  
Wind Speed 2 mph ()    
Max Wind Speed 12 mph    
Max Gust Speed -    
Visibility 8.0 miles    
Events      
Averages and records for this station are not official NWS values.
T = Trace of Precipitation, MM = Missing Value Source: Averaged Metar Reports

Daily Weather History Graph

Daily Weather History Graph

Search for Another Location

Airport or City:

Trip Planner

Search our weather history database for the weather conditions in past years. The results will help you decide how hot, cold, wet, or windy it might be!

Date:

Astronomy

Mar. 21, 2013 Rise Set
Actual Time 6:42 AM CST 6:50 PM CST
Civil Twilight 6:20 AM CST 7:11 PM CST
Nautical Twilight 5:55 AM CST 7:36 PM CST
Astronomical Twilight 5:30 AM CST 8:02 PM CST
Moon 2:02 PM CST (3/21) 2:22 AM CST (3/21)
Length of Visible Light 12h 51m
Length of Day
12h 08m
Waxing Gibbous, 69% of the Moon is Illuminated
Mar 21
Waxing Gibbous
Mar 27
Full
Apr 2
Last Quarter
Apr 10
New
Apr 18
First Quarter

Hourly Weather History & Observations

Time (CST) Temp. Heat Index Dew Point Humidity Pressure Visibility Wind Dir Wind Speed Gust Speed Precip Events Conditions
12:58 AM 78.8 °F - 73.4 °F 83% 29.88 in 8.0 mi Calm Calm - N/A   Scattered Clouds
1:45 AM 78.8 °F - 73.4 °F 83% 29.88 in 8.0 mi Calm Calm - N/A   Scattered Clouds
2:43 AM 73 °F - 70 °F 89% 29.86 in 6 mi West 2.2 mph - -  
2:49 AM 77.0 °F - 71.6 °F 83% 29.89 in 8.0 mi Calm Calm - N/A   Scattered Clouds
3:49 AM 77.0 °F - 71.6 °F 83% 29.85 in 8.0 mi Calm Calm - N/A   Scattered Clouds
4:43 AM 77.0 °F - 71.6 °F 83% 29.85 in 8.0 mi Calm Calm - N/A   Scattered Clouds
5:42 AM 77.0 °F - 71.6 °F 83% 29.89 in 8.0 mi Calm Calm - N/A   Scattered Clouds
5:43 AM 72 °F - 70 °F 91% 29.88 in 6 mi NNW 2.2 mph - -   Scattered Clouds
6:43 AM 75.2 °F - 69.8 °F 83% 29.88 in 8.0 mi Calm Calm - N/A   Partly Cloudy
7:41 AM 75.2 °F - 68.0 °F 78% 29.90 in 8.0 mi Calm Calm - N/A   Mostly Cloudy
8:41 AM 77.0 °F - 71.6 °F 83% 29.91 in 8.0 mi Calm Calm - N/A   Mostly Cloudy
8:50 AM 77 °F - 71 °F 75% 29.93 in 12 mi North 2.2 mph - -   Partly Cloudy
9:42 AM 78.8 °F - 69.8 °F 74% 29.91 in 8.0 mi Calm Calm - N/A   Mostly Cloudy
10:44 AM 82.4 °F 86.3 °F 69.8 °F 66% 29.90 in 8.0 mi Calm Calm - N/A   Mostly Cloudy
11:45 AM 86.0 °F 90.4 °F 69.8 °F 58% 29.87 in 8.0 mi South 9.2 mph - N/A   Mostly Cloudy
11:50 AM 87 °F - 67 °F 43% 29.87 in 12 mi SSW 4.5 mph - -   Mostly Cloudy
12:42 PM 86.0 °F 90.4 °F 69.8 °F 58% 29.87 in 8.0 mi South 11.5 mph - N/A   Mostly Cloudy
1:44 PM 86.0 °F 91.8 °F 71.6 °F 62% 29.85 in 8.0 mi South 9.2 mph - N/A   Mostly Cloudy
2:46 PM 86.0 °F 91.8 °F 71.6 °F 62% 29.83 in 8.0 mi SW 9.2 mph - N/A   Mostly Cloudy
3:42 PM 86.0 °F 93.4 °F 73.4 °F 66% 29.79 in 8.0 mi Calm Calm - N/A   Mostly Cloudy
4:43 PM 84.2 °F 92.3 °F 75.2 °F 74% 29.78 in 8.0 mi WSW 9.2 mph - N/A   Mostly Cloudy
5:45 PM 84.2 °F 92.3 °F 75.2 °F 74% 29.78 in 8.0 mi WSW 9.2 mph - N/A   Mostly Cloudy
6:45 PM 82.4 °F 88.2 °F 73.4 °F 74% 29.79 in 8.0 mi WSW 5.8 mph - N/A   Mostly Cloudy
7:45 PM 82.4 °F 88.2 °F 73.4 °F 74% 29.80 in 8.0 mi WSW 6.9 mph - N/A   Mostly Cloudy
8:45 PM 79 °F - 73 °F 77% 29.84 in 6 mi West 2.2 mph - -   Partly Cloudy
8:45 PM 80.6 °F 85.4 °F 73.4 °F 79% 29.79 in 8.0 mi WSW 5.8 mph - N/A   Mostly Cloudy
9:45 PM 80.6 °F 85.4 °F 73.4 °F 79% 29.85 in 8.0 mi Calm Calm - N/A   Mostly Cloudy
10:45 PM 78.8 °F - 73.4 °F 83% 29.86 in 8.0 mi Calm Calm - N/A   Mostly Cloudy
11:45 PM 77 °F - 72 °F 80% 29.85 in 6 mi NW 2.2 mph - -   Mostly Cloudy
11:45 PM 78.8 °F - 73.4 °F 83% 29.84 in 8.0 mi Calm Calm - N/A   Mostly Cloudy